Location: Essen
(51.4609°N, 7.0127°E)
Time: 02:58:45
(UTC+01:00)

Amateur Radio Satellites - All Passes

Search period start: 25 November 2017 02:28
Search period end: 26 November 2017 02:28
Location: Essen, 51.4609°N, 7.0127°E

Satellite Date Start Highest point End Downlink Frequencies (MHz)
Time Altitude Azimuth
CUBESAT XI-V 25 Nov 02:32:52 02:36:24 22° 60° (ENE) 02:39:59 437.345
ISS 25 Nov 02:33:45 02:35:51 16° 218° (SW) 02:37:58 437.550
ITUPSAT 1 25 Nov 02:34:46 02:39:28 60° 70° (ENE) 02:44:12 437.325
DX 1 25 Nov 02:37:15 02:40:11 17° 270° (W) 02:43:08 434.975-435.025
PCSat 25 Nov 02:39:50 02:44:15 25° 332° (NNW) 02:48:42 145.827
SO-50 25 Nov 02:45:47 02:49:00 18° 14° (NNE) 02:52:14 436.795
M-CUBED/EXP-1 PRIME 25 Nov 02:54:25 02:58:13 25° 99° (E) 03:02:02 437.505
RS-15 25 Nov 02:55:46 03:07:52 90° 232° (SW) 03:19:17 29.354- 29.394
AO-85 25 Nov 02:59:08 03:00:55 13° 110° (ESE) 03:02:45 145.980
BEESAT 2 25 Nov 03:01:33 03:05:10 33° 121° (ESE) 03:08:50 435.950
UKube-1 25 Nov 03:12:02 03:13:53 12° 273° (W) 03:15:45 .
Gurwin Techsat 1B 25 Nov 03:14:35 03:19:49 56° 292° (WNW) 03:25:00 435.225
BEESAT 3 25 Nov 03:17:21 03:21:20 68° 314° (NW) 03:25:22 437.485
YUBILEINY 25 Nov 03:26:03 03:29:40 13° 66° (ENE) 03:33:18 435.215
KKS-1 25 Nov 03:33:26 03:36:53 22° 60° (ENE) 03:40:22 437.445
AO-91 25 Nov 03:34:40 03:38:20 24° 301° (WNW) 03:41:43 145.960
STARS 25 Nov 03:47:17 03:49:42 15° 55° (NE) 03:52:07 437.465
MOZHAYETS 4 25 Nov 03:47:36 03:51:26 26° 267° (W) 03:55:19
Oscar 19 25 Nov 03:57:24 04:01:16 22° 304° (WNW) 04:05:10 437.125/150
BEESAT 25 Nov 04:01:02 04:05:02 26° 266° (W) 04:09:04 436.000
AO-7 25 Nov 04:05:07 04:13:22 60° 104° (ESE) 04:21:37 .
CUBESAT XI-V 25 Nov 04:08:53 04:13:25 59° 259° (W) 04:18:01 437.345
ITUPSAT 1 25 Nov 04:14:03 04:17:41 21° 269° (W) 04:21:20 437.325
ITAMSAT 1 25 Nov 04:18:31 04:23:42 60° 102° (ESE) 04:28:49 435.822/435.867
SO-50 25 Nov 04:26:09 04:30:34 43° 37° (NE) 04:35:02 436.795
PCSat 25 Nov 04:26:24 04:29:36 15° 358° (N) 04:32:48 145.827
M-CUBED/EXP-1 PRIME 25 Nov 04:28:21 04:32:47 52° 297° (WNW) 04:37:17 437.505
AO-85 25 Nov 04:36:38 04:40:35 89° 106° (ESE) 04:44:48 145.980
BEESAT 2 25 Nov 04:38:58 04:42:50 42° 321° (NW) 04:46:44 435.950
DOVE 4 25 Nov 04:55:12 04:59:50 31° 93° (E) 05:04:13 437.250
Gurwin Techsat 1B 25 Nov 04:56:29 04:58:42 13° 313° (NW) 05:00:53 435.225
BEESAT 3 25 Nov 04:56:39 04:59:33 19° 336° (NNW) 05:02:30 437.485
STRAND 1 25 Nov 05:07:16 05:10:01 15° 51° (NE) 05:12:45 437.568
KKS-1 25 Nov 05:08:43 05:13:07 56° 259° (WSW) 05:17:34 437.445
RS-15 25 Nov 05:09:05 05:18:51 32° 256° (WSW) 05:28:14 29.354- 29.394
YUBILEINY 25 Nov 05:15:54 05:24:22 56° 90° (E) 05:32:54 435.215
STARS 25 Nov 05:20:56 05:25:23 87° 78° (ENE) 05:29:51 437.465
XW-2C 25 Nov 05:34:50 05:36:48 14° 88° (E) 05:38:46 145.795 - 145.815
XW-2F 25 Nov 05:41:23 05:43:36 15° 89° (E) 05:45:49 145.980 - 146.000
LilacSat-2 25 Nov 05:41:35 05:44:10 17° 90° (E) 05:46:45 437.200
AO-7 25 Nov 05:58:14 06:05:58 44° 306° (NW) 06:13:42 .
ITAMSAT 1 25 Nov 05:58:33 06:02:49 26° 302° (WNW) 06:07:04 435.822/435.867
KAITUO 1B 25 Nov 06:01:34 06:04:18 19° 91° (E) 06:07:02 145.475/437.950
M-CUBED/EXP-1 PRIME 25 Nov 06:04:47 06:06:16 11° 315° (NW) 06:07:45 437.505
SO-50 25 Nov 06:06:43 06:11:03 41° 238° (WSW) 06:15:27 436.795
PCSat 25 Nov 06:10:52 06:15:03 22° 24° (NNE) 06:19:12 145.827
AO-85 25 Nov 06:18:17 06:21:34 23° 334° (NNW) 06:25:01 145.980
BEESAT 2 25 Nov 06:19:03 06:21:33 16° 343° (NNW) 06:24:03 435.950
CUTE-I 25 Nov 06:20:11 06:25:04 34° 95° (E) 06:29:54 437.470
FO-29 25 Nov 06:22:21 06:28:09 27° 51° (NE) 06:34:17 435.910
XW-2D 25 Nov 06:26:44 06:30:27 46° 99° (E) 06:34:08 145.860 - 145.880
DOVE 4 25 Nov 06:32:42 06:37:38 44° 293° (WNW) 06:42:20 437.250
BEESAT 3 25 Nov 06:36:55 06:38:33 12° 359° (N) 06:40:13 437.485
NUDT-PHONESAT 25 Nov 06:38:14 06:41:47 41° 98° (E) 06:45:20 437.300
XW-2B 25 Nov 06:41:41 06:45:30 64° 102° (ESE) 06:49:17 145.730 - 145.750
STRAND 1 25 Nov 06:43:13 06:48:20 70° 71° (ENE) 06:53:29 437.568
STARS 25 Nov 07:00:15 07:02:21 13° 273° (W) 07:04:28 437.465
XW-2C 25 Nov 07:07:36 07:11:24 66° 286° (WNW) 07:15:12 145.795 - 145.815
CUTE 1.7 + AOD 2 25 Nov 07:09:42 07:13:40 35° 96° (E) 07:17:36 437.475
YUBILEINY 25 Nov 07:13:12 07:21:28 44° 294° (WNW) 07:29:52 435.215
CUBEBUG 2 25 Nov 07:13:56 07:17:19 23° 92° (E) 07:20:39 437.445
XW-2F 25 Nov 07:14:19 07:18:04 59° 288° (WNW) 07:21:50 145.980 - 146.000
LilacSat-2 25 Nov 07:14:59 07:18:44 51° 289° (WNW) 07:22:29 437.200
HO-68 25 Nov 07:22:17 07:29:15 49° 99° (E) 07:36:08 435.675
AAUSAT CUBESAT 2 25 Nov 07:26:25 07:29:08 16° 89° (E) 07:31:48 437.432
UNISAT 6 25 Nov 07:29:59 07:30:56 11° 52° (NE) 07:31:54 437.425
SEEDS 25 Nov 07:31:50 07:35:48 37° 97° (E) 07:39:46 437.485
TIGRISAT 25 Nov 07:33:15 07:34:06 10° 52° (NE) 07:34:57 435.000
KAITUO 1B 25 Nov 07:34:53 07:38:30 45° 290° (WNW) 07:42:07 145.475/437.950
ZACube-1 25 Nov 07:42:59 07:45:32 16° 89° (E) 07:48:05 437.345
AO-7 25 Nov 07:51:58 07:56:43 17° 330° (NNW) 08:01:29 .
PCSat 25 Nov 07:54:06 07:59:31 62° 47° (NE) 08:04:53 145.827
BEESAT 2 25 Nov 07:58:54 08:00:51 13° 7° (N) 08:02:47 435.950
CUTE-I 25 Nov 08:00:08 08:05:14 44° 295° (WNW) 08:10:17 437.470
AO-85 25 Nov 08:01:05 08:03:29 14° 359° (N) 08:05:56 145.980
UWE-3 25 Nov 08:01:26 08:05:22 40° 98° (E) 08:09:17 435.000/436.395/437.385
XW-2D 25 Nov 08:01:31 08:04:20 20° 298° (WNW) 08:07:09 145.860 - 145.880
FO-29 25 Nov 08:05:09 08:12:11 88° 75° (ENE) 08:20:00 435.910
NUDT-PHONESAT 25 Nov 08:12:35 08:15:24 21° 297° (WNW) 08:18:13 437.300
BEESAT 3 25 Nov 08:14:43 08:17:34 18° 23° (NNE) 08:20:24 437.485
XW-2B 25 Nov 08:16:56 08:19:13 15° 300° (WNW) 08:21:31 145.730 - 145.750
STRAND 1 25 Nov 08:24:15 08:28:02 20° 270° (W) 08:31:50 437.568
XW-2A 25 Nov 08:27:21 08:30:43 71° 103° (ESE) 08:34:05 145.665 - 145.685
AO-73 25 Nov 08:30:22 08:34:17 38° 97° (E) 08:38:12 145.935
Oscar 11 25 Nov 08:41:53 08:45:55 36° 96° (E) 08:49:56 .
PRISM 25 Nov 08:43:52 08:46:41 18° 58° (ENE) 08:49:31 437.425
CUTE 1.7 + AOD 2 25 Nov 08:45:41 08:49:25 30° 295° (WNW) 08:53:10 437.475
CUBEBUG 2 25 Nov 08:50:11 08:54:08 41° 292° (WNW) 08:58:02 437.445
DELFI C3 25 Nov 08:53:08 08:54:18 11° 86° (E) 08:55:27 145.870
AAUSAT CUBESAT 2 25 Nov 09:00:49 09:04:59 63° 288° (WNW) 09:09:07 437.432
UNISAT 6 25 Nov 09:02:23 09:06:49 61° 72° (ENE) 09:11:10 437.425
TIGRISAT 25 Nov 09:05:31 09:09:57 61° 71° (ENE) 09:14:17 435.000
SEEDS 25 Nov 09:07:43 09:11:23 29° 296° (WNW) 09:15:02 437.485
HO-68 25 Nov 09:10:13 09:16:59 46° 300° (WNW) 09:23:42 435.675
YUBILEINY 25 Nov 09:17:23 09:21:20 13° 322° (NW) 09:25:19 435.215
ZACube-1 25 Nov 09:18:08 09:22:15 64° 287° (WNW) 09:26:23 437.345
BEESAT 2 25 Nov 09:36:27 09:39:53 25° 31° (NNE) 09:43:16 435.950
PCSat 25 Nov 09:37:58 09:42:36 29° 248° (WSW) 09:47:12 145.827
UWE-3 25 Nov 09:38:15 09:41:41 25° 296° (WNW) 09:45:06 435.000/436.395/437.385
AO-85 25 Nov 09:42:00 09:45:25 21° 24° (NNE) 09:49:02 145.980
CUTE-I 25 Nov 09:43:19 09:44:00 10° 316° (NW) 09:44:42 437.470
POLYITAN 1 25 Nov 09:51:51 09:53:38 13° 55° (NE) 09:55:26 437.675
BEESAT 3 25 Nov 09:51:51 09:55:49 65° 44° (NE) 09:59:43 437.485
FO-29 25 Nov 09:52:43 09:58:15 24° 276° (W) 10:04:13 435.910
XW-2A 25 Nov 10:01:40 10:02:56 12° 301° (WNW) 10:04:13 145.665 - 145.685
AIST 2D 25 Nov 10:06:19 10:09:23 29° 67° (ENE) 10:12:27 435.315
AO-73 25 Nov 10:06:56 10:10:24 26° 296° (WNW) 10:13:53 145.935
QB50P2 25 Nov 10:13:54 10:17:03 21° 60° (ENE) 10:20:12 145.880/145.840
PRISM 25 Nov 10:17:24 10:21:31 65° 258° (WSW) 10:25:41 437.425
Oscar 11 25 Nov 10:18:11 10:21:59 30° 295° (WNW) 10:25:46 .
EO-88 25 Nov 10:24:39 10:28:13 46° 100° (E) 10:31:45 145.990 - 145.960
DELFI C3 25 Nov 10:25:37 10:29:39 88° 289° (WNW) 10:33:38 145.870
Max Valier Satellite 25 Nov 10:36:33 10:40:15 90° 280° (W) 10:43:57 145.860
AAUSAT CUBESAT 2 25 Nov 10:39:13 10:39:36 10° 307° (NW) 10:39:58 437.432
UNISAT 6 25 Nov 10:40:45 10:43:54 19° 270° (W) 10:47:02 437.425
TIGRISAT 25 Nov 10:43:50 10:47:00 19° 270° (W) 10:50:09 435.000
DUCHIFAT 1 25 Nov 10:55:29 10:59:16 34° 66° (ENE) 11:03:04 145.980
HO-68 25 Nov 10:59:30 11:03:02 14° 323° (NW) 11:06:34 435.675
EO-79 25 Nov 11:08:00 11:12:08 55° 71° (ENE) 11:16:18 145.935-145.965
NANOSAT C BR1 25 Nov 11:08:17 11:12:22 50° 70° (ENE) 11:16:27 145.865
BEESAT 2 25 Nov 11:13:57 11:18:00 72° 232° (SW) 11:21:59 435.950
AO-85 25 Nov 11:22:03 11:26:35 66° 45° (NE) 11:31:29 145.980
AO-91 25 Nov 11:24:26 11:27:47 17° 55° (NE) 11:31:06 145.960
POLYITAN 1 25 Nov 11:24:30 11:28:44 80° 73° (ENE) 11:32:58 437.675
Gurwin Techsat 1B 25 Nov 11:24:32 11:27:24 15° 50° (NE) 11:30:16 435.225
BEESAT 3 25 Nov 11:30:09 11:32:58 19° 245° (WSW) 11:35:44 437.485
BUGSAT 1 25 Nov 11:31:01 11:34:19 23° 62° (ENE) 11:37:35 437.445
AO-7 25 Nov 11:31:16 11:35:22 15° 26° (NNE) 11:39:30 .
AIST 2D 25 Nov 11:39:43 11:42:34 24° 266° (W) 11:45:27 435.315
QB50P2 25 Nov 11:48:20 11:52:30 55° 259° (WSW) 11:56:41 145.880/145.840
EO-88 25 Nov 11:58:59 12:01:33 18° 298° (WNW) 12:04:08 145.990 - 145.960
Oscar 19 25 Nov 12:01:06 12:05:34 31° 61° (ENE) 12:10:04 437.125/150
DELFI C3 25 Nov 12:02:01 12:03:46 13° 304° (WNW) 12:05:28 145.870
O/OREOS (USA 219) 25 Nov 12:03:36 12:06:13 15° 99° (E) 12:08:51 437.305
LO-87 25 Nov 12:08:08 12:11:41 80° 285° (WNW) 12:15:13 145.935 - 145.965
ESTCUBE 1 25 Nov 12:10:01 12:14:34 70° 102° (ESE) 12:19:06 437.505/2401.250
VELOX 1 25 Nov 12:11:57 12:14:30 15° 88° (E) 12:17:03 145.980
Max Valier Satellite 25 Nov 12:12:21 12:13:29 11° 303° (WNW) 12:14:36 145.860
M-CUBED/EXP-1 PRIME 25 Nov 12:13:37 12:14:48 11° 44° (NE) 12:16:00 437.505
DUCHIFAT 1 25 Nov 12:31:14 12:34:58 30° 265° (W) 12:38:41 145.980
SPROUT 25 Nov 12:33:49 12:37:43 34° 96° (E) 12:41:34 437.525
NANOSAT C BR1 25 Nov 12:45:10 12:48:21 21° 268° (W) 12:51:32 145.865
EO-79 25 Nov 12:45:13 12:48:14 19° 269° (W) 12:51:16 145.935-145.965
BEESAT 2 25 Nov 12:54:14 12:54:57 10° 251° (WSW) 12:55:39 435.950
AO-91 25 Nov 12:58:06 13:03:30 79° 74° (ENE) 13:08:47 145.960
Gurwin Techsat 1B 25 Nov 13:01:10 13:06:26 68° 70° (ENE) 13:11:45 435.225
AO-85 25 Nov 13:02:55 13:06:45 25° 243° (WSW) 13:10:46 145.980
POLYITAN 1 25 Nov 13:03:00 13:05:04 13° 272° (W) 13:07:08 437.675
BUGSAT 1 25 Nov 13:05:25 13:09:26 46° 261° (W) 13:13:26 437.445
AO-7 25 Nov 13:18:31 13:25:53 38° 51° (NE) 13:33:18 .
YUBILEINY 25 Nov 13:24:07 13:27:01 12° 34° (NE) 13:29:56 435.215
Oscar 19 25 Nov 13:39:49 13:44:45 47° 261° (W) 13:49:42 437.125/150
O/OREOS (USA 219) 25 Nov 13:40:23 13:45:00 82° 299° (WNW) 13:49:38 437.305
M-CUBED/EXP-1 PRIME 25 Nov 13:44:34 13:48:17 62° 66° (ENE) 13:52:23 437.505
VELOX 1 25 Nov 13:47:02 13:51:31 77° 287° (WNW) 13:55:57 145.980
ESTCUBE 1 25 Nov 13:47:44 13:50:55 19° 302° (WNW) 13:54:06 437.505/2401.250
ITAMSAT 1 25 Nov 14:03:29 14:07:55 29° 59° (ENE) 14:12:20 435.822/435.867
50 SAT 25 Nov 14:08:34 14:11:44 50° 101° (E) 14:14:52 437.505
SPROUT 25 Nov 14:09:48 14:13:33 31° 295° (WNW) 14:17:18 437.525
NO-84 25 Nov 14:12:51 14:15:49 24° 135° (SE) 14:18:59 435.350 FM
DX 1 25 Nov 14:18:00 14:22:21 57° 101° (ESE) 14:26:39 434.975-435.025
DOVE 4 25 Nov 14:31:17 14:33:15 12° 49° (NE) 14:35:12 437.250
AO-91 25 Nov 14:36:35 14:40:26 20° 272° (W) 14:44:16 145.960
Gurwin Techsat 1B 25 Nov 14:42:50 14:46:53 22° 270° (W) 14:50:58 435.225
UKube-1 25 Nov 14:50:19 14:54:41 76° 105° (ESE) 14:58:59 .
AO-7 25 Nov 15:09:56 15:18:12 71° 253° (WSW) 15:26:33 .
YUBILEINY 25 Nov 15:19:06 15:27:15 38° 63° (ENE) 15:35:19 435.215
M-CUBED/EXP-1 PRIME 25 Nov 15:20:49 15:23:11 16° 266° (W) 15:25:40 437.505
O/OREOS (USA 219) 25 Nov 15:22:01 15:25:10 18° 320° (NW) 15:28:18 437.305
VELOX 1 25 Nov 15:25:06 15:27:13 13° 307° (NW) 15:29:20 145.980
MOZHAYETS 4 25 Nov 15:36:02 15:40:30 49° 100° (E) 15:44:55
50 SAT 25 Nov 15:41:42 15:43:26 14° 299° (WNW) 15:45:09 437.505
ITAMSAT 1 25 Nov 15:41:58 15:47:06 54° 259° (WSW) 15:52:16 435.822/435.867
NO-84 25 Nov 15:48:58 15:52:44 88° 337° (NNW) 15:56:49 435.350 FM
BEESAT 25 Nov 15:54:30 15:59:10 53° 101° (E) 16:03:49 436.000
DX 1 25 Nov 15:54:51 15:58:11 21° 301° (WNW) 16:01:30 434.975-435.025
CUBESAT XI-V 25 Nov 16:00:09 16:04:00 24° 92° (E) 16:07:50 437.345
DOVE 4 25 Nov 16:04:44 16:09:47 54° 69° (ENE) 16:14:59 437.250
ITUPSAT 1 25 Nov 16:07:22 16:12:08 67° 103° (ESE) 16:16:52 437.325
CUTE-I 25 Nov 16:09:31 16:13:09 19° 53° (NE) 16:16:50 437.470
HO-68 25 Nov 16:12:04 16:16:43 19° 42° (NE) 16:21:20 435.675
XW-2C 25 Nov 16:21:12 16:23:26 15° 59° (ENE) 16:25:39 145.795 - 145.815
XW-2F 25 Nov 16:27:18 16:29:38 16° 60° (ENE) 16:32:01 145.980 - 146.000
UKube-1 25 Nov 16:27:24 16:30:11 17° 303° (WNW) 16:32:57 .
LilacSat-2 25 Nov 16:28:33 16:31:14 19° 62° (ENE) 16:33:57 437.200
KAITUO 1B 25 Nov 16:46:30 16:49:13 20° 62° (ENE) 16:51:57 145.475/437.950
KKS-1 25 Nov 16:54:50 16:58:03 19° 91° (E) 17:01:14 437.445
AO-7 25 Nov 17:07:18 17:12:31 18° 275° (W) 17:17:48 .
STARS 25 Nov 17:07:21 17:08:23 11° 85° (E) 17:09:24 437.465
XW-2D 25 Nov 17:12:37 17:16:13 47° 70° (ENE) 17:19:52 145.860 - 145.880
MOZHAYETS 4 25 Nov 17:13:40 17:17:25 25° 298° (WNW) 17:21:09
YUBILEINY 25 Nov 17:15:55 17:24:39 65° 267° (W) 17:33:19 435.215
NUDT-PHONESAT 25 Nov 17:21:54 17:25:20 40° 69° (ENE) 17:28:48 437.300
RS-15 25 Nov 17:26:00 17:36:25 34° 105° (ESE) 17:46:42 29.354- 29.394
NO-84 25 Nov 17:26:30 17:30:21 50° 357° (N) 17:34:27 435.350 FM
XW-2B 25 Nov 17:27:30 17:31:12 66° 74° (ENE) 17:34:58 145.730 - 145.750
UWE-3 25 Nov 17:31:09 17:31:40 10° 53° (NE) 17:32:10 435.000/436.395/437.385
BEESAT 25 Nov 17:32:47 17:36:41 26° 300° (WNW) 17:40:32 436.000
CUBESAT XI-V 25 Nov 17:37:04 17:41:38 50° 291° (WNW) 17:46:10 437.345
DOVE 4 25 Nov 17:43:20 17:47:44 28° 269° (W) 17:52:15 437.250
ITUPSAT 1 25 Nov 17:45:59 17:49:31 21° 302° (WNW) 17:53:03 437.325
CUTE-I 25 Nov 17:47:08 17:52:31 88° 73° (ENE) 17:57:57 437.470
XW-2C 25 Nov 17:53:27 17:57:09 63° 258° (WSW) 18:00:55 145.795 - 145.815
HO-68 25 Nov 17:56:05 18:03:08 61° 65° (ENE) 18:10:13 435.675
XW-2F 25 Nov 17:59:41 18:03:21 58° 259° (W) 18:07:04 145.980 - 146.000
LilacSat-2 25 Nov 18:01:33 18:05:12 48° 260° (W) 18:08:54 437.200
CUTE 1.7 + AOD 2 25 Nov 18:07:03 18:11:05 47° 70° (ENE) 18:15:11 437.475
CUBEBUG 2 25 Nov 18:16:29 18:20:38 39° 68° (ENE) 18:24:41 437.445
KAITUO 1B 25 Nov 18:19:24 18:22:55 44° 261° (W) 18:26:30 145.475/437.950
AAUSAT CUBESAT 2 25 Nov 18:21:15 18:24:26 22° 62° (ENE) 18:27:40 437.432
SEEDS 25 Nov 18:28:08 18:32:09 49° 70° (ENE) 18:36:14 437.485
KKS-1 25 Nov 18:30:35 18:35:00 60° 290° (WNW) 18:39:21 437.445
STARS 25 Nov 18:41:02 18:45:28 80° 105° (ESE) 18:49:50 437.465
ZACube-1 25 Nov 18:43:25 18:46:51 24° 63° (ENE) 18:50:15 437.345
XW-2D 25 Nov 18:48:05 18:50:39 17° 269° (W) 18:53:15 145.860 - 145.880
STRAND 1 25 Nov 18:49:28 18:52:34 16° 87° (E) 18:55:39 437.568
NUDT-PHONESAT 25 Nov 18:56:40 18:59:22 19° 268° (W) 19:02:05 437.300
XW-2A 25 Nov 19:03:00 19:06:14 53° 72° (ENE) 19:09:30 145.665 - 145.685
UWE-3 25 Nov 19:03:00 19:07:18 63° 72° (ENE) 19:11:32 435.000/436.395/437.385
NO-84 25 Nov 19:04:00 19:08:06 69° 19° (NNE) 19:12:20 435.350 FM
XW-2B 25 Nov 19:04:02 19:05:50 13° 272° (W) 19:07:38 145.730 - 145.750
FO-29 25 Nov 19:11:23 19:14:57 14° 76° (ENE) 19:18:27 435.910
YUBILEINY 25 Nov 19:14:47 19:19:38 16° 291° (WNW) 19:24:29 435.215
ISS 25 Nov 19:18:40 19:18:55 10° 136° (SE) 19:19:09 437.550
CUTE-I 25 Nov 19:29:56 19:33:18 17° 273° (W) 19:36:43 437.470
AO-73 25 Nov 19:30:33 19:34:41 58° 71° (ENE) 19:38:47 145.935
RS-15 25 Nov 19:35:12 19:47:37 90° 309° (NW) 19:59:51 29.354- 29.394
Oscar 11 25 Nov 19:41:23 19:45:34 52° 70° (ENE) 19:49:46 .
DELFI C3 25 Nov 19:42:52 19:45:06 15° 58° (ENE) 19:47:19 145.870
CUTE 1.7 + AOD 2 25 Nov 19:43:55 19:47:10 22° 269° (W) 19:50:28 437.475
HO-68 25 Nov 19:44:48 19:51:16 35° 266° (W) 19:57:47 435.675
Max Valier Satellite 25 Nov 19:49:28 19:50:20 11° 56° (ENE) 19:51:10 145.860
nSIGHT-1 25 Nov 19:52:33 19:55:02 21° 145° (SE) 19:57:30 .
CUBEBUG 2 25 Nov 19:53:27 19:57:20 28° 266° (W) 20:01:09 437.445
AAUSAT CUBESAT 2 25 Nov 19:55:36 19:59:37 49° 261° (W) 20:03:41 437.432
SEEDS 25 Nov 20:04:56 20:08:07 21° 269° (W) 20:11:19 437.485
KKS-1 25 Nov 20:09:35 20:10:39 11° 310° (NW) 20:11:43 437.445
STARS 25 Nov 20:18:30 20:21:16 17° 304° (NW) 20:24:00 437.465
ZACube-1 25 Nov 20:18:53 20:22:57 43° 262° (W) 20:26:59 437.345
SO-50 25 Nov 20:26:54 20:29:52 18° 113° (ESE) 20:32:52 436.795
STRAND 1 25 Nov 20:27:18 20:32:27 86° 287° (WNW) 20:37:34 437.568
O/OREOS (USA 219) 25 Nov 20:27:30 20:30:21 16° 38° (NE) 20:33:08 437.305
XW-2A 25 Nov 20:37:44 20:39:15 13° 270° (W) 20:40:48 145.665 - 145.685
UWE-3 25 Nov 20:41:17 20:44:10 17° 270° (W) 20:47:00 435.000/436.395/437.385
NO-84 25 Nov 20:41:25 20:45:23 41° 217° (SW) 20:49:23 435.350 FM
ISS 25 Nov 20:51:36 20:54:42 40° 154° (SSE) 20:57:49 437.550
FO-29 25 Nov 20:54:01 21:01:47 57° 98° (E) 21:09:02 435.910
EO-88 25 Nov 21:06:51 21:10:18 44° 70° (ENE) 21:13:48 145.990 - 145.960
AO-73 25 Nov 21:08:24 21:11:17 18° 270° (W) 21:14:09 145.935
DELFI C3 25 Nov 21:15:19 21:19:18 77° 257° (WSW) 21:23:19 145.870
LO-87 25 Nov 21:18:18 21:19:15 11° 57° (ENE) 21:20:12 145.935 - 145.965
Oscar 11 25 Nov 21:18:48 21:22:00 20° 269° (W) 21:25:14 .
Max Valier Satellite 25 Nov 21:19:52 21:23:31 86° 79° (E) 21:27:12 145.860
nSIGHT-1 25 Nov 21:27:41 21:30:53 68° 165° (SSE) 21:34:05 .
ESTCUBE 1 25 Nov 21:39:27 21:42:33 19° 58° (ENE) 21:45:42 437.505/2401.250
RS-15 25 Nov 21:49:45 22:01:38 49° 340° (NNW) 22:13:12 29.354- 29.394
PRISM 25 Nov 21:54:52 21:56:39 12° 87° (E) 21:58:25 437.425
SO-50 25 Nov 22:05:17 22:09:46 82° 314° (NW) 22:14:20 436.795
O/OREOS (USA 219) 25 Nov 22:06:02 22:10:37 72° 60° (ENE) 22:15:08 437.305
STRAND 1 25 Nov 22:07:39 22:10:57 17° 307° (NW) 22:14:13 437.568
UNISAT 6 25 Nov 22:25:05 22:29:22 65° 103° (ESE) 22:33:36 437.425
ISS 25 Nov 22:27:46 22:31:03 88° 359° (N) 22:34:20 437.550
TIGRISAT 25 Nov 22:28:03 22:32:18 63° 101° (E) 22:36:30 435.000
FO-29 25 Nov 22:39:18 22:46:34 43° 300° (WNW) 22:53:30 435.910
EO-88 25 Nov 22:41:41 22:44:11 18° 269° (W) 22:46:42 145.990 - 145.960
PCSat 25 Nov 22:43:07 22:46:28 17° 106° (ESE) 22:49:50 145.827
LO-87 25 Nov 22:48:27 22:52:03 89° 254° (WSW) 22:55:40 145.935 - 145.965
AIST 2D 25 Nov 22:58:59 23:01:29 18° 92° (E) 23:03:59 435.315
nSIGHT-1 25 Nov 23:03:53 23:07:08 86° 10° (N) 23:10:21 .
VELOX 1 25 Nov 23:13:34 23:17:15 26° 62° (ENE) 23:20:58 145.980
ESTCUBE 1 25 Nov 23:14:25 23:18:54 70° 258° (WSW) 23:23:25 437.505/2401.250
PRISM 25 Nov 23:28:18 23:32:30 84° 287° (WNW) 23:36:40 437.425
QB50P2 25 Nov 23:28:32 23:31:17 17° 90° (E) 23:34:00 145.880/145.840
SPROUT 25 Nov 23:31:39 23:35:47 50° 70° (ENE) 23:39:57 437.525
DX 1 25 Nov 23:44:25 23:47:00 16° 55° (NE) 23:49:36 434.975-435.025
O/OREOS (USA 219) 25 Nov 23:46:33 23:49:29 17° 260° (W) 23:52:24 437.305
SO-50 25 Nov 23:47:11 23:50:52 24° 335° (NNW) 23:54:37 436.795
UNISAT 6 26 Nov 00:02:43 00:05:39 18° 301° (WNW) 00:08:34 437.425
ISS 26 Nov 00:04:16 00:07:33 75° 193° (SSW) 00:10:49 437.550
TIGRISAT 26 Nov 00:05:38 00:08:35 18° 301° (WNW) 00:11:30 435.000
RS-15 26 Nov 00:05:39 00:17:18 46° 13° (NNE) 00:28:25 29.354- 29.394
DUCHIFAT 1 26 Nov 00:09:17 00:12:56 28° 95° (E) 00:16:32 145.980
UKube-1 26 Nov 00:15:10 00:18:13 19° 58° (ENE) 00:21:15 .
NANOSAT C BR1 26 Nov 00:22:35 00:26:36 43° 99° (E) 00:30:35 145.865
EO-79 26 Nov 00:22:46 00:26:51 48° 100° (E) 00:30:55 145.935-145.965
PCSat 26 Nov 00:23:40 00:29:05 84° 125° (SE) 00:34:34 145.827
FO-29 26 Nov 00:25:50 00:29:39 15° 323° (NW) 00:33:25 435.910
AIST 2D 26 Nov 00:31:29 00:34:50 41° 290° (WNW) 00:38:11 435.315
POLYITAN 1 26 Nov 00:39:29 00:43:41 71° 104° (ESE) 00:47:51 437.675
50 SAT 26 Nov 00:40:02 00:43:04 37° 69° (ENE) 00:46:06 437.505
nSIGHT-1 26 Nov 00:40:09 00:43:15 46° 203° (SSW) 00:46:20 .
BUGSAT 1 26 Nov 00:42:23 00:45:04 17° 90° (E) 00:47:43 437.445
AO-91 26 Nov 00:46:18 00:47:10 10° 81° (E) 00:48:02 145.960
VELOX 1 26 Nov 00:49:13 00:53:29 46° 261° (W) 00:57:48 145.980
QB50P2 26 Nov 01:03:18 01:07:29 62° 288° (WNW) 01:11:37 145.880/145.840
PRISM 26 Nov 01:05:12 01:07:06 13° 305° (NW) 01:09:01 437.425
MOZHAYETS 4 26 Nov 01:08:19 01:10:49 15° 55° (NE) 01:13:19
SPROUT 26 Nov 01:08:41 01:11:57 21° 268° (W) 01:15:14 437.525
Gurwin Techsat 1B 26 Nov 01:12:52 01:16:25 18° 88° (E) 01:19:57 435.225
DX 1 26 Nov 01:18:13 01:22:35 85° 254° (WSW) 01:27:01 434.975-435.025
BEESAT 3 26 Nov 01:23:59 01:26:44 18° 115° (ESE) 01:29:31 437.485
BEESAT 26 Nov 01:30:00 01:33:22 19° 56° (ENE) 01:36:44 436.000
SO-50 26 Nov 01:30:02 01:32:51 16° 360° (N) 01:35:42 436.795
ISS 26 Nov 01:40:59 01:43:42 24° 213° (SSW) 01:46:25 437.550
ITUPSAT 1 26 Nov 01:42:42 01:46:28 24° 59° (ENE) 01:50:14 437.325
DUCHIFAT 1 26 Nov 01:44:50 01:48:39 35° 293° (WNW) 01:52:25 145.980
Oscar 19 26 Nov 01:45:34 01:50:28 41° 98° (E) 01:55:21 437.125/150
UKube-1 26 Nov 01:49:30 01:53:48 66° 257° (WSW) 01:58:08 .
NANOSAT C BR1 26 Nov 01:58:42 02:02:06 24° 298° (WNW) 02:05:30 145.865
EO-79 26 Nov 01:59:04 02:02:21 22° 299° (WNW) 02:05:37 145.935-145.965
PCSat 26 Nov 02:08:27 02:13:07 28° 328° (NNW) 02:17:49 145.827
50 SAT 26 Nov 02:13:10 02:15:17 16° 268° (W) 02:17:26 437.505
POLYITAN 1 26 Nov 02:16:18 02:18:59 17° 302° (WNW) 02:21:39 437.675
BUGSAT 1 26 Nov 02:16:49 02:20:47 56° 289° (WNW) 02:24:42 437.445
nSIGHT-1 26 Nov 02:17:37 02:18:53 12° 222° (SW) 02:20:09 .
AO-91 26 Nov 02:20:00 02:24:37 81° 104° (ESE) 02:28:40 145.960
